This is the latest recevied weather packets stored in our database for station/object K8GLX. If no packets are shown the sender has not sent any weather packets the latest 10 day(s).
| Time | Temp. | Humidity | Pressure | Rain* | Wind** | Luminosity | Snow |
|---|---|---|---|---|---|---|---|
| 1777382534 | 15.56° C | 79% | 1010.6 hPa | 0 mm | - | 339 W/m² | - |
| 1777382228 | 15.56° C | 79% | 1010.6 hPa | 0 mm | - | 299 W/m² | - |
| 1777381933 | 15.56° C | 80% | 1010.6 hPa | 0 mm | - | 175 W/m² | - |
| 1777381628 | 15.56° C | 80% | 1010.4 hPa | 0 mm | - | 217 W/m² | - |
| 1777381334 | 15.56° C | 80% | 1010.4 hPa | 0 mm | - | 211 W/m² | - |
| 1777381027 | 15.56° C | 80% | 1010.4 hPa | 0 mm | - | 205 W/m² | - |
| 1777380733 | 15.56° C | 81% | 1010.3 hPa | 0 mm | - | 211 W/m² | - |
| 1777380428 | 15° C | 81% | 1010.4 hPa | 0 mm | - | 147 W/m² | - |
| 1777380134 | 15° C | 82% | 1010.2 hPa | 0 mm | - | 169 W/m² | - |
| 1777379828 | 15° C | 82% | 1010.1 hPa | 0 mm | - | 123 W/m² | - |
| 1777379660 | 15° C | 82% | 1010.2 hPa | 0 mm | - | 116 W/m² | - |
| 1777379228 | 15° C | 83% | 1009.9 hPa | 0 mm | - | 123 W/m² | - |
| 1777378933 | 15° C | 83% | 1010.3 hPa | 0 mm | - | 113 W/m² | - |
| 1777378628 | 15° C | 83% | 1010.1 hPa | 0 mm | - | 99 W/m² | - |
| 1777378333 | 15° C | 83% | 1010.1 hPa | 0 mm | - | 87 W/m² | - |
| 1777378146 | 15° C | 84% | 1010.1 hPa | 0 mm | - | 82 W/m² | - |
| 1777377862 | 15° C | 84% | 1009.8 hPa | 0 mm | - | 81 W/m² | - |
| 1777377428 | 15° C | 85% | 1009.9 hPa | 0 mm | - | 77 W/m² | - |
| 1777377133 | 15° C | 85% | 1009.9 hPa | 0 mm | - | 64 W/m² | - |
| 1777376828 | 15° C | 85% | 1009.7 hPa | 0 mm | - | 56 W/m² | - |
| 1777376534 | 15° C | 86% | 1009.9 hPa | 0 mm | - | 47 W/m² | - |
| 1777376228 | 14.44° C | 86% | 1009.7 hPa | 0 mm | - | 38 W/m² | - |
| 1777375934 | 14.44° C | 87% | 1010.2 hPa | 0 mm | - | 28 W/m² | - |
| 1777375628 | 14.44° C | 87% | 1009.7 hPa | 0 mm | - | 20 W/m² | - |
| 1777375337 | 14.44° C | 87% | 1009.7 hPa | 0 mm | - | 23 W/m² | - |
* Rain latest hour (hover to see other rain measurements)
** Current wind speed in m/s (hover to see current wind gust speed)